Home   Weather   Pudong   Past weeks
Flag for China

Past Weather in Pudong, Shanghai Municipality, China — Yesterday and Last 2 Weeks

Now
75 °F

Clear.


Feels Like: 78 °F
Forecast: 85 / 71 °F
Wind: 15 mph from Southeast

Location: Shanghai Hongqiao Airport

Current Time: May 24, 2019 at 9:10:21 pm

Latest Report: May 24, 2019 at 8:30 pm


Visibility: 10 mi

Pressure: 29.83 "Hg

Humidity: 47%

Dew Point: 54 °F

Location of PudongLocation

Past Weather in Pudong — Graph

°F

Pudong Temperature Yesterday

Maximum temperature yesterday: 95 °F (at 1:30 pm)
Minimum temperature yesterday: 66 °F (at 1:30 am)
Average temperature yesterday: 80 °F

High & Low Weather Summary for the Past Weeks

 TemperatureHumidityPressure
High95 °F (May 23, 1:30 pm)94% (May 13, 3:00 pm)29.95 "Hg (May 13, 3:00 pm)
Low63 °F (May 10, 2:30 am)15% (May 23, 3:00 pm)29.59 "Hg (May 17, 3:30 pm)
Average73 °F62%29.82 "Hg
* Reported May 9 7:00 pm — May 24 7:30 pm, Pudong. Weather by CustomWeather, © 2019

Note: Actual official high and low records may vary slightly from our data, if they occured in-between our weather recording intervals... More about our weather records

Advertising

Pudong Weather History for the Previous 24 Hours

Scroll right to see more
 ConditionsComfort  
Time TempWeatherWind HumidityBarometerVisibility
7:30 pm
Fri, May 24
77 °FClear.15 mph39%29.83 "Hg10 mi
7:00 pm79 °FClear.13 mph37%29.83 "Hg10 mi
6:30 pm81 °FSunny.15 mph32%29.83 "Hg10 mi
6:00 pm82 °FSunny.20 mph28%29.83 "Hg10 mi
5:30 pm84 °FSunny.17 mph27%29.80 "Hg10 mi
5:00 pm86 °FSunny.17 mph24%29.80 "Hg10 mi
4:30 pm88 °FSunny.17 mph22%29.80 "Hg10 mi
4:00 pm90 °FSunny.17 mph20%29.83 "Hg10 mi
3:30 pm90 °FSunny.15 mph22%29.83 "Hg10 mi
3:00 pm91 °FSunny.17 mph20%29.83 "Hg10 mi
2:30 pm91 °FPassing clouds.15 mph18%29.86 "HgN/A
2:00 pm91 °FPassing clouds.15 mph16%29.86 "HgN/A
1:30 pm91 °FSunny.15 mph16%29.86 "Hg10 mi
1:00 pm91 °FPassing clouds.17 mph17%29.89 "HgN/A
12:30 pm91 °FPassing clouds.17 mph18%29.89 "HgN/A
12:00 pm91 °FSunny.15 mph18%29.89 "Hg10 mi
11:30 am93 °FSunny.17 mph15%29.92 "Hg10 mi
11:00 am91 °FSunny.15 mph16%29.92 "Hg10 mi
10:30 am91 °FSunny.15 mph20%29.92 "Hg10 mi
10:00 am90 °FPassing clouds.13 mph17%29.92 "HgN/A
9:30 am90 °FSunny.10 mph24%29.92 "Hg10 mi
9:00 am86 °FPassing clouds.10 mph29%29.92 "HgN/A
8:30 am84 °FPassing clouds.6 mph35%29.92 "HgN/A
8:00 am81 °FPassing clouds.6 mph45%29.92 "HgN/A
7:30 am79 °FPassing clouds.6 mph48%29.92 "HgN/A
7:00 am77 °FSunny.6 mph54%29.92 "Hg10 mi
6:30 am73 °FSunny.3 mph65%29.92 "Hg10 mi
6:00 am72 °FSunny.3 mph65%29.89 "Hg10 mi
5:30 am70 °FSunny.1 mph69%29.89 "Hg10 mi
5:00 am68 °FSunny.3 mph69%29.89 "Hg10 mi
4:30 am68 °FClear.1 mph69%29.89 "Hg10 mi
4:00 am68 °FClear.3 mph69%29.86 "Hg10 mi
3:30 am70 °FClear.1 mph69%29.86 "Hg10 mi
3:00 am68 °FClear.1 mph73%29.89 "Hg10 mi
2:30 am68 °FClear.6 mph73%29.89 "Hg10 mi
2:00 am72 °FClear.8 mph65%29.89 "Hg10 mi
1:30 am72 °FClear.8 mph61%29.89 "Hg10 mi
1:00 am72 °FClear.8 mph61%29.89 "Hg10 mi
12:30 am75 °FClear.8 mph54%29.89 "Hg10 mi
12:00 am75 °FPassing clouds.6 mph50%29.89 "HgN/A
11:30 pm
Thu, May 23
75 °FClear.6 mph54%29.89 "Hg10 mi
11:00 pm75 °FClear.6 mph54%29.89 "Hg10 mi
10:30 pm77 °FClear.6 mph54%29.89 "Hg10 mi
10:00 pm77 °FClear.8 mph54%29.89 "Hg10 mi
9:30 pm77 °FClear.8 mph51%29.89 "Hg10 mi
9:00 pm79 °FClear.6 mph48%29.89 "Hg10 mi
Weather by CustomWeather, © 2019

See weather overview